Tel Aviv, Israel

11:27 AM IDT on October 21, 2017 (GMT +0300)
Ben Gurion

Weather History for LLBG - January, 2013

Change the Weather History Date:

Tuesday, January 1, 2013

  Actual Average Record
Temperature  
Mean Temperature 58 °F -  
Max Temperature 69 °F 61 °F 77 °F (2000)
Min Temperature 47 °F 47 °F 43 °F (2014)
Degree Days  
Heating Degree Days 7    
Growing Degree Days 8 (Base 50)    
Moisture  
Dew Point 49 °F    
Average Humidity 69    
Maximum Humidity 94    
Minimum Humidity 52    
Precipitation  
Precipitation 0.03 in - - ()
Sea Level Pressure  
Sea Level Pressure 30.06 in    
Wind  
Wind Speed 4 mph ()    
Max Wind Speed 10 mph    
Max Gust Speed -    
Visibility 6.1 miles    
Events Rain    
Averages and records for this station are not official NWS values.
T = Trace of Precipitation, MM = Missing Value Source: Averaged Metar Reports

Daily Weather History Graph

Daily Weather History Graph

Search for Another Location

Airport or City:

Trip Planner

Search our weather history database for the weather conditions in past years. The results will help you decide how hot, cold, wet, or windy it might be!

Date:

Astronomy

Jan. 01, 2013 Rise Set
Actual Time 6:40 AM IST 4:47 PM IST
Civil Twilight 6:14 AM IST 5:14 PM IST
Nautical Twilight 5:43 AM IST 5:44 PM IST
Astronomical Twilight 5:13 AM IST 6:14 PM IST
Moon 8:41 PM IST (1/1) 8:56 AM IST (1/1)
Length of Visible Light 11h 00m
Length of Day
10h 06m
Waning Gibbous, 85% of the Moon is Illuminated
Jan 1
Waning Gibbous
Jan 5
Last Quarter
Jan 11
New
Jan 19
First Quarter
Jan 27
Full

Hourly Weather History & Observations

Time (IST) Temp. Dew Point Humidity Pressure Visibility Wind Dir Wind Speed Gust Speed Precip Events Conditions
12:50 AM 51.8 °F 42.8 °F 71% 30.04 in - East 3.5 mph - N/A   Clear
1:50 AM 50.0 °F 42.8 °F 76% 30.04 in - ENE 2.3 mph - N/A   Clear
2:00 AM 50 °F 42 °F 67% 30.05 in 6 mi ENE 2.3 mph - -  
2:50 AM 50.0 °F 42.8 °F 76% 30.04 in - East 2.3 mph - N/A   Clear
3:50 AM 50.0 °F 42.8 °F 76% 30.04 in - East 3.5 mph - N/A   Clear
4:50 AM 50.0 °F 41.0 °F 71% 30.04 in - East 4.6 mph - N/A   Clear
5:50 AM 48.2 °F 41.0 °F 76% 30.04 in - NE 3.5 mph - N/A   Clear
6:50 AM 50.0 °F 41.0 °F 71% 30.04 in - Variable 1.2 mph - N/A   Clear
7:50 AM 53.6 °F 41.0 °F 62% 30.06 in - Variable 2.3 mph - N/A   Clear
8:00 AM 53 °F 41 °F 54% 30.07 in 6 mi 2.3 mph - -  
8:50 AM 57.2 °F 42.8 °F 59% 30.06 in - Variable 1.2 mph - N/A   Clear
9:50 AM 64.4 °F 46.4 °F 52% 30.06 in - SSE 6.9 mph - N/A   Clear
10:50 AM 66.2 °F 50.0 °F 56% 30.04 in - SSW 6.9 mph - N/A   Clear
11:50 AM 68.0 °F 53.6 °F 60% 30.04 in 6.2 mi SW 6.9 mph - N/A   Partly Cloudy
12:50 PM 69.8 °F 53.6 °F 56% 30.01 in 6.2 mi SSW 6.9 mph - N/A   Scattered Clouds
1:50 PM 68.0 °F 55.4 °F 64% 30.01 in 6.2 mi WSW 9.2 mph - N/A   Scattered Clouds
2:00 PM 68 °F 55 °F 53% 30.02 in 6 mi WSW 9.2 mph - -   Partly Cloudy
2:50 PM 68.0 °F 55.4 °F 64% 30.04 in 6.2 mi WSW 10.4 mph - N/A   Scattered Clouds
3:50 PM 66.2 °F 55.4 °F 68% 30.04 in 6.2 mi WSW 9.2 mph - N/A   Partly Cloudy
4:50 PM 64.4 °F 51.8 °F 64% 30.06 in 6.2 mi West 5.8 mph - N/A   Partly Cloudy
5:50 PM 62.6 °F 53.6 °F 72% 30.06 in - WSW 3.5 mph - N/A   Clear
6:50 PM 60.8 °F 53.6 °F 77% 30.09 in - East 3.5 mph - N/A   Clear
7:50 PM 59.0 °F 51.8 °F 77% 30.09 in - East 3.5 mph - N/A   Clear
8:00 PM 60 °F 52 °F 69% 30.12 in 6 mi East 3.5 mph - -  
8:50 PM 57.2 °F 51.8 °F 82% 30.09 in - ENE 2.3 mph - N/A   Clear
9:50 PM 59.0 °F 53.6 °F 82% 30.12 in 6.2 mi Variable 2.3 mph - N/A Rain Light Rain
10:50 PM 59.0 °F 53.6 °F 82% 30.12 in 6.2 mi East 5.8 mph - N/A   Mostly Cloudy
11:50 PM 57.2 °F 55.4 °F 94% 30.12 in 6.2 mi Variable 2.3 mph - N/A Rain Light Rain